Location: Palomar Observatory
(33.3560°N, 116.8630°W)
Time: 12:45:22
(UTC-07:00)

Iridium 57 - Visible Passes

Search period start: 24 August 2016 00:00
Search period end: 03 September 2016 00:00
Orbit: 776 x 779 km, 86.4° (Epoch: 24 August)

Date Brightness Start Highest point End Pass type
(mag) Time Alt. Az. Time Alt. Az. Time Alt. Az.
24 Aug 7.8 05:15:25 10° SE 05:19:45 27° E 05:24:06 10° NNE visible
25 Aug 8.6 04:43:53 10° ESE 04:46:30 14° E 04:49:06 10° NE visible
26 Aug 5.7 05:47:55 10° S 05:53:07 81° E 05:58:21 10° N visible
27 Aug 7.0 05:14:51 10° SSE 05:19:41 40° E 05:24:32 10° NNE visible
28 Aug 8.1 04:42:33 10° SE 04:46:22 21° E 04:50:12 10° NE visible
29 Aug 8.8 04:12:23 10° E 04:13:10 10° ENE 04:13:57 10° ENE visible
29 Aug 5.5 05:48:00 10° S 05:53:10 68° W 05:58:22 10° N visible
30 Aug 6.1 05:14:33 10° SSE 05:19:40 61° E 05:24:49 10° N visible
31 Aug 7.4 04:41:45 10° SE 04:46:17 31° E 04:50:50 10° NNE visible
01 Sep 8.3 04:09:54 10° ESE 04:13:00 16° E 04:16:07 10° NE visible
01 Sep 5.8 05:48:18 10° SSW 05:53:16 45° W 05:58:15 10° NNW visible
02 Sep 5.5 05:14:29 10° S 05:19:42 88° W 05:24:56 10° N visible
